When you browse on this site, cookies collect data to enhance your experience and personalize the content and advertising you see.
Visit our Privacy Policy to learn more. By continuing to use the site, you agree to this use of cookies and data.
  • en France
  • Liste des pays
  • À 7 jours
  • Température de l'eau
  • Carte météo
  • Widgets météo
  • user-avatar
    Se connecter

    Météo par heure à Lincoln

    Ce jour, 23 Septembre, Lundi

    Heure Température Précipitation Vent Pression Humidité
    00:00 +14°C° 0 mm 3 m/s 748 mmHg 90%
    01:00 +13°C° 0 mm 3 m/s 748 mmHg 91%
    02:00 +13°C° 0 mm 3 m/s 749 mmHg 92%
    03:00 +12°C° 0 mm 3 m/s 749 mmHg 94%
    04:00 +12°C° 0 mm 3 m/s 749 mmHg 94%
    05:00 +12°C° 0 mm 4 m/s 750 mmHg 94%
    06:00 +12°C° 0 mm 4 m/s 750 mmHg 94%
    07:00 +13°C° 0 mm 4 m/s 750 mmHg 87%
    08:00 +14°C° 0 mm 5 m/s 751 mmHg 80%
    09:00 +15°C° 0 mm 5 m/s 751 mmHg 74%
    10:00 +16°C° 0 mm 5 m/s 751 mmHg 68%
    11:00 +17°C° 0 mm 6 m/s 751 mmHg 62%
    12:00 +19°C° 0 mm 6 m/s 752 mmHg 56%
    13:00 +19°C° 0 mm 6 m/s 752 mmHg 56%
    14:00 +19°C° 0 mm 5 m/s 751 mmHg 56%
    15:00 +19°C° 0 mm 5 m/s 751 mmHg 56%
    16:00 +19°C° 0 mm 5 m/s 751 mmHg 60%
    17:00 +17°C° 0 mm 5 m/s 751 mmHg 64%
    18:00 +16°C° 0 mm 5 m/s 751 mmHg 69%
    19:00 +16°C° 0.4 mm 5 m/s 750 mmHg 74%
    20:00 +15°C° 0.4 mm 6 m/s 750 mmHg 80%
    21:00 +15°C° 0.4 mm 7 m/s 750 mmHg 85%
    22:00 +15°C° 0 mm 6 m/s 750 mmHg 86%
    23:00 +15°C° 0 mm 6 m/s 750 mmHg 87%

    Demain, 24 Septembre, Mardi

    Heure Température Précipitation Vent Pression Humidité
    00:00 +15°C° 0 mm 5 m/s 749 mmHg 87%
    01:00 +15°C° 0 mm 5 m/s 749 mmHg 88%
    02:00 +16°C° 0 mm 5 m/s 748 mmHg 89%
    03:00 +16°C° 0 mm 5 m/s 747 mmHg 89%
    04:00 +16°C° 0.3 mm 5 m/s 747 mmHg 91%
    05:00 +15°C° 0.3 mm 5 m/s 746 mmHg 92%
    06:00 +15°C° 0.3 mm 5 m/s 745 mmHg 94%
    07:00 +16°C° 1.1 mm 6 m/s 745 mmHg 92%
    08:00 +16°C° 1.1 mm 6 m/s 744 mmHg 90%
    09:00 +16°C° 1.1 mm 7 m/s 744 mmHg 88%
    10:00 +16°C° 0.6 mm 7 m/s 743 mmHg 86%
    11:00 +16°C° 0.6 mm 7 m/s 743 mmHg 84%
    12:00 +16°C° 0.6 mm 6 m/s 743 mmHg 81%
    13:00 +16°C° 0.2 mm 6 m/s 743 mmHg 78%
    14:00 +17°C° 0.2 mm 5 m/s 742 mmHg 75%
    15:00 +17°C° 0.2 mm 5 m/s 742 mmHg 73%
    16:00 +17°C° 0.1 mm 4 m/s 743 mmHg 76%
    17:00 +17°C° 0.1 mm 3 m/s 743 mmHg 79%
    18:00 +16°C° 0.1 mm 3 m/s 743 mmHg 82%
    19:00 +14°C° 0.1 mm 3 m/s 743 mmHg 83%
    20:00 +14°C° 0.1 mm 3 m/s 744 mmHg 84%
    21:00 +14°C° 0.1 mm 4 m/s 744 mmHg 85%
    22:00 +14°C° 0.2 mm 4 m/s 744 mmHg 87%
    23:00 +14°C° 0.2 mm 4 m/s 743 mmHg 88%

    Après-demain, 25 Septembre, Mercredi

    Heure Température Précipitation Vent Pression Humidité
    00:00 +13°C° 0.2 mm 4 m/s 743 mmHg 90%
    01:00 +13°C° 0.1 mm 4 m/s 743 mmHg 90%
    02:00 +13°C° 0.1 mm 4 m/s 743 mmHg 90%
    03:00 +13°C° 0.1 mm 4 m/s 742 mmHg 90%
    04:00 +13°C° 0 mm 3 m/s 742 mmHg 91%
    05:00 +13°C° 0 mm 3 m/s 742 mmHg 92%
    06:00 +14°C° 0 mm 2 m/s 742 mmHg 92%
    07:00 +15°C° 0 mm 2 m/s 742 mmHg 90%
    08:00 +15°C° 0 mm 1 m/s 743 mmHg 88%
    09:00 +16°C° 0 mm 1 m/s 743 mmHg 87%
    10:00 +18°C° 0 mm 1 m/s 744 mmHg 81%
    11:00 +19°C° 0 mm 1 m/s 744 mmHg 75%
    12:00 +19°C° 0 mm 2 m/s 744 mmHg 69%
    13:00 +19°C° 0.1 mm 2 m/s 745 mmHg 68%
    14:00 +19°C° 0.1 mm 2 m/s 745 mmHg 67%
    15:00 +20°C° 0.1 mm 3 m/s 745 mmHg 65%
    16:00 +19°C° 0.1 mm 2 m/s 745 mmHg 70%
    17:00 +18°C° 0.1 mm 2 m/s 745 mmHg 74%
    18:00 +17°C° 0.1 mm 2 m/s 745 mmHg 79%
    19:00 +16°C° 0 mm 2 m/s 745 mmHg 82%
    20:00 +16°C° 0 mm 3 m/s 745 mmHg 84%
    21:00 +14°C° 0 mm 3 m/s 745 mmHg 87%
    22:00 +14°C° 0.7 mm 4 m/s 745 mmHg 88%
    23:00 +14°C° 0.7 mm 5 m/s 745 mmHg 90%

    26 Septembre, Jeudi

    Heure Température Précipitation Vent Pression Humidité
    00:00 +14°C° 0.7 mm 6 m/s 744 mmHg 92%
    01:00 +15°C° 0.6 mm 6 m/s 744 mmHg 90%
    02:00 +15°C° 0.6 mm 6 m/s 744 mmHg 88%
    03:00 +16°C° 0.6 mm 6 m/s 744 mmHg 86%
    04:00 +15°C° 0 mm 6 m/s 744 mmHg 86%
    05:00 +15°C° 0 mm 6 m/s 744 mmHg 87%
    06:00 +15°C° 0 mm 6 m/s 744 mmHg 88%
    07:00 +15°C° 0.1 mm 6 m/s 744 mmHg 83%
    08:00 +16°C° 0.1 mm 6 m/s 744 mmHg 78%
    09:00 +16°C° 0.1 mm 6 m/s 745 mmHg 73%
    10:00 +16°C° 0 mm 6 m/s 745 mmHg 69%
    11:00 +17°C° 0 mm 7 m/s 745 mmHg 65%
    12:00 +18°C° 0 mm 7 m/s 745 mmHg 60%
    13:00 +17°C° 0.2 mm 7 m/s 745 mmHg 63%
    14:00 +17°C° 0.2 mm 6 m/s 745 mmHg 65%
    15:00 +16°C° 0.2 mm 6 m/s 745 mmHg 67%
    16:00 +15°C° 0 mm 6 m/s 745 mmHg 70%
    17:00 +15°C° 0 mm 5 m/s 745 mmHg 73%
    18:00 +14°C° 0 mm 5 m/s 745 mmHg 75%
    19:00 +14°C° 0 mm 5 m/s 746 mmHg 76%
    20:00 +14°C° 0 mm 5 m/s 746 mmHg 77%
    21:00 +13°C° 0 mm 6 m/s 746 mmHg 78%
    22:00 +13°C° 0 mm 5 m/s 746 mmHg 78%
    23:00 +13°C° 0 mm 5 m/s 746 mmHg 79%

    27 Septembre, Vendredi

    Heure Température Précipitation Vent Pression Humidité
    00:00 +13°C° 0 mm 5 m/s 746 mmHg 79%
    01:00 +13°C° 0 mm 5 m/s 746 mmHg 79%
    02:00 +13°C° 0 mm 5 m/s 745 mmHg 79%
    03:00 +13°C° 0 mm 5 m/s 745 mmHg 79%
    04:00 +12°C° 0 mm 5 m/s 745 mmHg 81%
    05:00 +12°C° 0 mm 5 m/s 745 mmHg 82%
    06:00 +12°C° 0 mm 5 m/s 745 mmHg 84%
    07:00 +13°C° 0 mm 6 m/s 745 mmHg 80%
    08:00 +13°C° 0 mm 6 m/s 745 mmHg 76%
    09:00 +14°C° 0 mm 7 m/s 745 mmHg 73%
    10:00 +15°C° 0.1 mm 7 m/s 744 mmHg 69%
    11:00 +16°C° 0.1 mm 8 m/s 744 mmHg 66%
    12:00 +16°C° 0.1 mm 8 m/s 744 mmHg 62%
    13:00 +16°C° 0.4 mm 8 m/s 743 mmHg 67%
    14:00 +15°C° 0.4 mm 8 m/s 743 mmHg 71%
    15:00 +14°C° 0.4 mm 7 m/s 743 mmHg 76%
    16:00 +14°C° 0.3 mm 7 m/s 743 mmHg 78%
    17:00 +13°C° 0.3 mm 6 m/s 743 mmHg 80%
    18:00 +13°C° 0.3 mm 6 m/s 743 mmHg 82%
    19:00 +13°C° 1.7 mm 6 m/s 743 mmHg 84%
    20:00 +13°C° 1.7 mm 6 m/s 743 mmHg 85%
    21:00 +13°C° 1.7 mm 5 m/s 743 mmHg 86%
    22:00 +12°C° 0 mm 5 m/s 743 mmHg 87%
    23:00 +12°C° 0 mm 5 m/s 743 mmHg 87%

    28 Septembre, Samedi

    Heure Température Précipitation Vent Pression Humidité
    00:00 +10°C° 0 mm 5 m/s 743 mmHg 88%
    01:00 +10°C° 0 mm 5 m/s 743 mmHg 88%
    02:00 +11°C° 0 mm 4 m/s 743 mmHg 88%
    03:00 +10°C° 0 mm 4 m/s 743 mmHg 88%
    04:00 +10°C° 0 mm 4 m/s 743 mmHg 88%
    05:00 +9°C° 0 mm 5 m/s 743 mmHg 88%
    06:00 +9°C° 0 mm 5 m/s 743 mmHg 88%
    07:00 +10°C° 0 mm 6 m/s 743 mmHg 82%
    08:00 +11°C° 0 mm 7 m/s 744 mmHg 77%
    09:00 +12°C° 0 mm 8 m/s 744 mmHg 72%
    10:00 +13°C° 0 mm 8 m/s 744 mmHg 71%
    11:00 +13°C° 0 mm 8 m/s 745 mmHg 70%
    12:00 +13°C° 0 mm 8 m/s 745 mmHg 69%
    13:00 +15°C° 0.1 mm 8 m/s 745 mmHg 68%
    14:00 +15°C° 0.1 mm 8 m/s 745 mmHg 66%
    15:00 +15°C° 0.1 mm 7 m/s 745 mmHg 65%
    16:00 +14°C° 0 mm 7 m/s 746 mmHg 69%
    17:00 +13°C° 0 mm 6 m/s 746 mmHg 73%
    18:00 +12°C° 0 mm 5 m/s 746 mmHg 77%
    19:00 +12°C° 0 mm 5 m/s 746 mmHg 79%
    20:00 +10°C° 0 mm 5 m/s 747 mmHg 81%
    21:00 +10°C° 0 mm 5 m/s 747 mmHg 82%
    22:00 +11°C° 0 mm 4 m/s 747 mmHg 84%
    23:00 +11°C° 0 mm 4 m/s 746 mmHg 86%
    Voir plus